Regional Weather Roundup
Issued by NWS Grand Forks, ND

Home | Current Version | Previous Version | Graphics & Text | Print | Product List | Glossary On
Versions: 1 2 3 4 5 6 7 8 9 10 11 12 13 14 15 16 17 18 19 20 21 22 23 24 25 26 27 28 29 30 31 32 33 34 35 36 37 38 39 40 41 42 43 44 45 46 47 48 49 50
163
ASUS43 KFGF 171131
RWRFGF
PRAIRIE TO PINES  WEATHER ROUNDUP
NATIONAL WEATHER SERVICE EASTERN NORTH DAKOTA/GRAND FORKS ND
500 AM CST SAT FEB 17 2018

 **SATELLITE DATA USED TO AUGMENT SKY COVER AT AUTOMATED STATIONS**
 *****  WEATHER ACROSS EASTERN NORTH DAKOTA  *****

CITY           SKY/WX    TMP DP  RH WIND       PRES   REMARKS
GRAND FORKS    FAIR      14  10  84 W7        29.79R WCI   4
GRAND FRKS AFB FAIR      15  10  80 W6        29.78R WCI   6
GRAND FRKS NWS   N/A     15  12  90 NW1       29.76R
DEVILS LAKE    FAIR      13   9  84 W14       29.77R WCI  -2
FARGO          FAIR      18  14  84 SW8       29.81S WCI   8
WAHPETON ARPT  FAIR      16  12  86 W6        29.83R WCI   7
$$

 ***** WEATHER ACROSS CENTRAL AND WESTERN NORTH DAKOTA  *****

CITY           SKY/WX    TMP DP  RH WIND       PRES   REMARKS
BISMARCK       MOCLDY    16  14  92 NW6       29.85R WCI   7
MINOT          FAIR      14   8  77 W13       29.82R WCI   0
JAMESTOWN      FAIR      14  10  84 W12       29.79R WCI   0
MINOT AFB      FAIR      10   6  81 W10         N/A  WCI  -3
GARRISON         N/A     12   8  84 NW13      29.83R WCI  -3
WILLISTON      MOCLDY    11   7  84 W12       29.90R WCI  -3
DICKINSON      FAIR      19  17  92 NW15      29.81R WCI   5
HETTINGER      MOCLDY    23  21  92 NW17      29.83R WCI   9
$$

 *****  OTHER AIRPORT OBSERVATIONS IN OUR AREA  *****

CITY           SKY/WX    TMP DP  RH WIND       PRES   REMARKS
WALHALLA       FAIR      12  12 100 W7        29.75S WCI   2
GRAFTON AIRPOR FAIR      10   7  85 W10       29.79S WCI  -3
VALLEY CITY AR FAIR      16  16 100 W13       29.81R WCI   2
CANDO          FAIR       9   9 100 W14       29.79R WCI  -8
CAVALIER APRT    N/A     12   9  85 W9        29.76R WCI   0
GWINNER          N/A     14  10  85 W8        29.81S WCI   3
SHEYENNE NWR     N/A     14  12  91 W5        29.95S WCI   6
ROLLA          FLURRIES  12   9  85 NW17      29.74R WCI  -5
 ***** THE ABOVE OBSERVATIONS ARE NON NWS ARE NOT QUALITY
       CONTROLLED AND MAY MIS-REPORT RAIN FOR SNOW...
$$

  *****  WEATHER ACROSS NORTHERN MINNESOTA  *****

CITY           SKY/WX    TMP DP  RH WIND       PRES   REMARKS
FLAG ISLAND    FAIR       9   5  85 W10       29.67R WCI  -6
WARROAD        MOCLDY    12   9  85 W9        29.70R WCI   0
ROSEAU         NOT AVBL
HALLOCK        FAIR       7   3  85 W3        29.76R
THF RVR FALLS  NOT AVBL
BAUDETTE       CLOUDY    15   9  76 W9        29.68R WCI   3
WASKISH        CLOUDY    16  10  79 SW9       29.72R WCI   4
CROOKSTON      FAIR      14  10  85 W10       29.79S WCI   1
STEPHEN NDAWN    N/A     12   7  79 W6          N/A  WCI   3
GREENBUSH NDAW   N/A     10   7  85 SW6         N/A  WCI   1
$$
  *****  WEATHER ACROSS CENTRAL AND WEST MINNESOTA  *****

CITY           SKY/WX    TMP DP  RH WIND       PRES   REMARKS
FOSSTON        FAIR      12   9  85 SW6       29.76S WCI   3
BEMIDJI        FAIR      16  12  85 W9        29.73R WCI   4
PARK RAPIDS    FAIR      14  10  84 SW7       29.75R WCI   4
ELBOW LAKE     FAIR      21  16  80 NW9       29.80F WCI  10
WADENA         FAIR      18  14  86 W7        29.77S WCI   8
DETROIT LAKES  FAIR      19  18  93 W7        29.78S WCI  10
MOORHEAD       FAIR      14  10  85 W7        29.82S WCI   4
FERGUS FALLS   FAIR      18  12  79 NW6       29.81S WCI   9
MORRIS MN      FAIR      19  12  73 CALM      29.80S
STAPLES        FAIR      16  12  86 CALM      29.78S
$$
  *****  WEATHER ELSEWHERE ACROSS MINNESOTA  *****

CITY           SKY/WX    TMP DP  RH WIND       PRES   REMARKS
DULUTH         FAIR      15   8  73 SW16      29.75R WCI  -1
INTRNTL FALLS  MOCLDY    18  12  77 W8        29.67R WCI   8
ELY            CLOUDY    14   9  79 SW9       29.69S WCI   2
CLOQUET        FAIR      14   9  79 SW8       29.77S WCI   3
WHEATON        FAIR      21  18  86 W5        29.83F WCI  15
BRAINERD       FAIR      16  11  80 S6        29.78F WCI   7
HIBBING        FAIR      11   6  81 VRB3      29.73R
ALEXANDRIA     FAIR      21  15  78 W7        29.79S WCI  12
SAINT CLOUD    FAIR      18  13  80 S6        29.82F WCI  10
MINNEAPOLIS    CLOUDY    24  14  65 SW9       29.88F WCI  14
$$

  *****  WEATHER ACROSS SOUTH DAKOTA  *****

CITY           SKY/WX    TMP DP  RH WIND       PRES   REMARKS
SIOUX FALLS    LGT SNOW  25  23  92 S8        29.84S FOG     WCI  16
BROOKINGS      CLOUDY    25  21  86 S5        29.81F WCI  19
WATERTOWN      MOCLDY    21  19  92 SW6       29.80R WCI  13
HURON          FAIR      18  17  96 NW5       29.83S WCI  11
SISSETON         N/A     22  17  81 W8        29.80S WCI  12
ABERDEEN       FAIR      17  15  92 NW6       29.83S WCI   9
MITCHELL       FAIR      27  26  96 CALM      29.85R
PIERRE         FAIR      15  11  83 W12       29.84R WCI   2
MOBRIDGE       CLOUDY    18  13  80 NW5       29.81R WCI  11
RAPID CITY     CLOUDY    25  15  66 W5        29.85R WCI  19
$$

  *****  SOME WEATHER IN NEARBY STATES *****

CITY           SKY/WX    TMP DP  RH WIND       PRES   REMARKS
GLASGOW MT     FAIR       6   2  83 W8        29.98R WCI  -7
GREAT FALLS MT LGT SNOW  14  12  92 CALM      29.99F FOG
CHEYENNE WY    FAIR      28  11  48 W21G29    29.91R WCI  15
SCOTTSBLUFF NE FAIR      28  17  63 CALM      29.91R
OMAHA NE       CLOUDY    30  15  53 S14       29.92F WCI  19
DES MOINES IA  CLOUDY    26  11  52 S9        30.01S WCI  17
DAVENPORT IA   FAIR      19   9  65 S10       30.11F WCI   7
CHICAGO IL     MOCLDY    18   9  68 S6        30.15S WCI  10
EAU CLAIRE WI  FAIR      15   7  70 S5        29.90F WCI   8
LA CROSSE WI   FAIR      19   8  62 S12       29.99F WCI   7
$$

  *****  SOME NATIONAL WEATHER *****

CITY           SKY/WX    TMP DP  RH WIND       PRES   REMARKS
LA GUARDIA NY  FAIR      31  16  54 N8        30.38R WCI  23
RALEIGH NC     CLOUDY    46  37  71 E12G23    30.29R
ATLANTA GA     CLOUDY    52  48  86 CALM      30.13R
NEW ORLEANS LA CLOUDY    67  67 100 SW3       30.09F FOG
OKLAHOMA CITY  MOCLDY    37  35  92 NW24      30.06R
ALBUQUERQUE NM MOCLDY    40  38  93 CALM      30.16S
SALT LAKE CITY MOCLDY    33  17  51 SE8       30.20S
LOS ANGELES CA FAIR      54  35  48 E6        30.10F
BOISE ID       MOCLDY    32  26  78 SE7       30.15F
SEATTLE WA     CLOUDY    45  43  93 SW12      30.03F
$$

*** WEATHER ACROSS MANITOBA...SASKATCHEWAN AND ONTARIO ***
                ***ONTARIO***

CITY           SKY/WX    TMP DP  RH WIND       PRES   REMARKS
GERALDTON      LGT SNOW  10   5  79 S6        29.62F WCI   1
THUNDER BAY    CLOUDY    19  12  73 SW10      29.70F WCI   8
SIOUX LOOKOUT  LGT SNOW  16  12  86 W8        29.54R WCI   5
TORONTO        CLEAR     21  14  73 S6        30.25R WCI  14
BIG TROUT LK   CLEAR     -4  -8  84 W7        29.45F WCI -18
PICKLE LAKE    LGT SNOW   7   3  85 NW5       29.49  WCI  -2
DRYDEN         FLURRIES  14   9  79 W18G25    29.55R WCI  -3
KENORA         CLOUDY     7   3  85 W8        29.62R WCI  -6
$$
                *** MANITOBA***

CITY           SKY/WX    TMP DP  RH WIND       PRES   REMARKS
BRANDON        PTCLDY     5   0  78 W16       29.76R WCI -14
DAUPHIN        CLEAR      5   0  78 W18       29.76R WCI -15
ISLAND LAKE    FLURRIES  -2  -9  71 W8        29.54R WCI -17
PILOT MOUND      N/A     14  10  85 W12G20      N/A  WCI   0
THE PAS        FLURRIES   1  -8  66 W14G20    29.67R WCI -17
THOMPSON       PTCLDY    -9 -18  64 W8        29.56S WCI -26
WINNIPEG       PTCLDY     0  -4  85 NW7       29.74R WCI -13
LYNN LAKE      FLURRIES -13 -18  77 W7        29.53S WCI -29
CHURCHILL      FLURRIES -22 -27  76 W13       29.49R WCI -46
GILLAM         CLEAR    -15 -22  70 W7        29.51F WCI -31
$$
                ***SASKATCHEWAN***

CITY           SKY/WX    TMP DP  RH WIND       PRES   REMARKS
ESTEVAN        PTCLDY     5   1  85 W10       29.85R WCI -10
KINDERSLEY     PTCLDY     5   0  78 NW9       29.93S WCI  -9
LLOYDMINSTER   PTCLDY     1  -4  78 W17G23    29.86F WCI -19
PRINCE ALBERT  FLURRIES   0  -6  78 W7        29.84S WCI -13
REGINA         MOCLDY     9   3  78 NW9       29.84S WCI  -5
YORKTON        CLEAR      0  -4  85 SW12      29.76F WCI -18
N. BATTLEFORD  CLEAR      5  -4  66 W14       29.90R WCI -12
LA RONGE       FLURRIES   1  -6  71 W13G18    29.74S WCI -16
SASKATOON      CLEAR      3  -2  78 W13       29.88R WCI -14
SWIFT CURRENT  MOCLDY     3  -2  78 W16G22    29.89S WCI -16
$$
NOTE: THESE ARE AUTOMATED STATIONS WITH LIMITED QUALITY CONTROL
      "FAIR" INDICATES FEW OR NO CLOUDS BELOW 12,000 FEET WITH NO
      SIGNIFICANT WEATHER AND/OR OBSTRUCTIONS TO VISIBILITY.
      SKY/WX - SKY CONDITION AND SIGNIFICANT WEATHER.
      TMP - AIR TEMPERATURE.    DP   - DEWPOINT TEMPERATURE.
      RH  - RELATIVE HUMIDITY.  PRES - PRESSURE.
      HX  - HEAT INDEX.         WCI  - WIND CHILL INDEX.
$




USA.gov is the U.S. government's official web portal to all federal, state and local government web resources and services.